Simultaneous Nadir Overpasses (SNOs) Predictions

Prediction of SNOs between GOES-17 and METOP-C Satellite Orbit:

Table of predicted SNOs for the next 14.0 days since TLE Epoch: 6/11/2022
Index Date Time (GOES-17) GOES-17 Lat,Lon METOP-C Lat,Lon Distance(km) Time Diff (sec)
1 06/11/2022 18:36:06 0.05,-137.20 -0.22,-135.97 140.38 80
2 06/13/2022 06:52:27 -0.05,-137.19 -0.82,-140.56 384.93 80
3 06/14/2022 06:34:28 -0.05,-137.19 0.33,-135.58 183.54 80
4 06/15/2022 18:50:40 0.04,-137.18 0.68,-140.14 337.11 80
5 06/16/2022 18:32:40 0.04,-137.18 -0.41,-135.15 230.93 80
6 06/18/2022 06:49:02 -0.03,-137.16 -0.62,-139.75 295.50 80
7 06/19/2022 06:31:02 -0.03,-137.15 0.48,-134.75 272.44 80
8 06/20/2022 18:47:13 0.03,-137.14 0.54,-139.32 248.73 80
9 06/21/2022 18:29:15 0.03,-137.13 -0.61,-134.33 319.23 80
10 06/23/2022 06:45:35 -0.03,-137.11 -0.45,-138.93 207.23 80
11 06/24/2022 06:27:36 -0.03,-137.10 0.65,-133.93 360.41 80
